Tracking 25701 objects as of 3-Jul-2022
HD Live streaming from Space Station
objects crossing your sky now

STARLINK-2432

Track STARLINK-2432 now!
10-day predictions
STARLINK-2432 is classified as:


NORAD ID: 47840
Int'l Code: 2021-018BF
Perigee: 552.9 km
Apogee: 555.8 km
Inclination: 53.1 °
Period: 95.6 minutes
Semi major axis: 6925 km
RCS: Unknown
Launch date: March 11, 2021
Source: United States (US)
Launch site: AIR FORCE EASTERN TEST RANGE (AFETR)
aabbcc
Your satellite tracking list
Your tracking list is empty




NASA's NSSDC Master Catalog

Two Line Element Set (TLE):
1 47840U 21018BF  22183.63078962 -.00000562  00000-0 -18843-4 0  9995
2 47840  53.0556 154.3246 0002068  64.3471 295.7731 15.06398760 73655
Source of the keplerian elements: AFSPC